FW8741 Weather Reports


time (UTC)temp
C
wind
direction
speed
KPH
gust
KPH
rain 1hr
cm
rain 24hr
cm
rain mn
cm
humidity
%
barometer
mb
20260504044542 7 0 0.0 0.0 0.00 0.00 0.00 68 1013.3
20260504043043 7 0 0.0 0.0 0.00 0.00 0.00 67 1013.2
20260504041542 7 0 0.0 0.0 0.00 0.00 0.00 65 1013.0
20260504040045 7 0 0.0 3.2 0.00 0.00 0.00 65 1012.9
20260504034554 7 0 0.0 0.0 0.00 0.00 0.00 65 1012.7
20260504033055 8 0 0.0 0.0 0.00 0.00 0.00 62 1012.6
20260504031559 8 0 0.0 1.6 0.00 0.00 0.00 58 1012.6
20260504030101 8 0 0.0 1.6 0.00 0.00 0.00 61 1012.7
20260504024550 8 0 0.0 1.6 0.00 0.00 0.00 59 1012.7
20260504023047 8 0 0.0 1.6 0.00 0.00 0.00 59 1012.7
20260504021544 9 0 0.0 1.6 0.00 0.00 0.00 57 1012.7
20260504020046 10 0 0.0 1.6 0.00 0.00 0.00 52 1012.7
20260504014550 9 0 0.0 0.0 0.00 0.00 0.00 52 1012.7
20260504013050 9 0 0.0 0.0 0.00 0.00 0.00 52 1012.5
20260504011545 10 0 0.0 1.6 0.00 0.00 0.00 53 1012.4
20260504010051 10 0 0.0 1.6 0.00 0.00 0.00 52 1012.2
20260504004549 11 221 0.0 1.6 0.00 0.00 0.00 47 1012.0
20260504003048 11 0 0.0 1.6 0.00 0.00 0.00 49 1011.8
20260504001550 11 0 0.0 1.6 0.00 0.00 0.00 47 1011.7
20260504000120 12 0 0.0 1.6 0.00 0.00 0.00 47 1011.4
20260503234543 13 0 0.0 1.6 0.00 0.00 0.00 38 1011.2
20260503233044 14 0 0.0 1.6 0.00 0.00 0.00 37 1011.1
20260503231547 14 0 0.0 8.0 0.00 0.00 0.00 36 1011.2
20260503230042 15 195 1.6 11.3 0.00 0.00 0.00 36 1011.0
20260503224553 15 192 1.6 9.7 0.00 0.00 0.00 34 1011.0
20260503223047 15 207 3.2 14.5 0.00 0.00 0.00 36 1011.0
20260503221543 16 209 3.2 16.1 0.00 0.00 0.00 31 1011.0
20260503220046 15 243 3.2 11.3 0.00 0.00 0.00 33 1011.0
20260503214552 16 233 3.2 9.7 0.00 0.00 0.00 31 1010.7
20260503213049 16 192 4.8 14.5 0.00 0.00 0.00 32 1010.6
20260503211548 15 167 1.6 12.9 0.00 0.00 0.00 33 1010.5
20260503210050 16 216 1.6 12.9 0.00 0.00 0.00 33 1010.6
20260503204552 16 203 0.0 11.3 0.00 0.00 0.00 33 1010.7
20260503203050 16 172 3.2 11.3 0.00 0.00 0.00 32 1010.7
20260503201546 16 203 4.8 20.9 0.00 0.00 0.00 31 1011.0
20260503200048 16 226 4.8 12.9 0.00 0.00 0.00 36 1011.4
20260503194546 16 198 3.2 11.3 0.00 0.00 0.00 35 1011.3
20260503193042 16 197 4.8 16.1 0.00 0.00 0.00 32 1011.4
20260503191550 16 158 1.6 19.3 0.00 0.00 0.00 37 1011.5
20260503190050 15 257 6.4 16.1 0.00 0.00 0.00 36 1011.6
20260503184605 14 237 8.0 17.7 0.00 0.00 0.00 34 1012.0
20260503183048 15 191 4.8 17.7 0.00 0.00 0.00 35 1012.0
20260503181557 14 160 4.8 12.9 0.00 0.00 0.00 38 1012.0
20260503180044 13 212 6.4 14.5 0.00 0.00 0.00 36 1012.2
20260503174540 13 179 1.6 11.3 0.00 0.00 0.00 39 1012.3
20260503173045 12 153 1.6 14.5 0.00 0.00 0.00 37 1012.2
20260503171604 13 198 6.4 14.5 0.00 0.00 0.00 40 1012.5
20260503081542 6 0 0.0 4.8 0.00 0.00 0.00 61 1011.6
20260503071603 6 0 0.0 4.8 0.00 0.08 0.00 60 1011.3
20260503054556 6 0 0.0 1.6 0.00 0.10 0.00 64 1011.8
20260503053045 6 0 0.0 0.0 0.00 0.10 0.00 62 1011.8